AirNav   Duncan Aviation - Near you to keep you flying
 
 1043 users online  

9FD2 Blackwater Creek Ultralight Flightpark
Plant City, Florida, USA

GOING TO PLANT CITY?


FAA INFORMATION EFFECTIVE 26 JANUARY 2023

Location

FAA Identifier: 9FD2
Lat/Long: 28-08-13.0520N 082-08-47.3060W
28-08.217533N 082-08.788433W
28.1369589,-82.1464739
(estimated)
Elevation: 80 ft. / 24 m (estimated)
Variation: 02W (1985)
From city: 8 miles NE of PLANT CITY, FL
Time zone: UTC -5 (UTC -4 during Daylight Saving Time)
Zip code: 33565

Ultralight Flight Park Operations

Ultralight Flight Park use: Private use. Permission required prior to landing
Activation date: 08/1988
Control tower: no
ARTCC: JACKSONVILLE CENTER
FSS: SAINT PETERSBURG FLIGHT SERVICE STATION
Attendance: CONTINUOUS
Wind indicator: yes
Segmented circle: yes

Ultralight Flight Park Communications

WX AWOS-3PT at ZPH (5 nm N): 118.975 (813-780-0031)
WX AWOS-3 at PCM (8 nm S): 120.025 (813-764-8259)
WX AWOS-3PT at LAL (11 nm SE): PHONE 863-834-2030
WX AWOS-3 at VDF (13 nm SW): 121.125 (813-630-0924)

Nearby radio navigation aids

VOR radial/distance  VOR name  Freq  Var
LALr321/11.4LAKELAND VORTAC116.0001E
PIEr069/31.6ST PETERSBURG VORTAC116.4005W

Ultralight Flight Park Services

Runway Information

Runway 17/35

Dimensions: 2300 x 150 ft. / 701 x 46 m
Surface: turf
RUNWAY 17  RUNWAY 35
Traffic pattern: leftright

Ultralight Flight Park Ownership and Management from official FAA records

Ownership: Privately-owned
Owner: ROY D. CANNON/JULIAN E. CANNON
9002 ST ROAD 39 NORTH
PLANT CITY, FL 33565
Phone (863) 370-3700
Manager: ROY D. CANNON
9002 ST ROAD 39 NORTH
PLANT CITY, FL 33565
Phone (863) 370-3700

Ultralight Flight Park Operational Statistics

Aircraft based on the field: 6
Single engine airplanes: 2
Ultralights: 4
    

Additional Remarks

CAUTION: SKYDIVING IN PROGRESS MOST DAYS OF WEEK ESPECIALLY DURING HOLIDAYS AND WEEKENDS
SHADE HANGARS AVAILABLE FOR RENT
ADDNL CTC: JULIAN E. CANNON - 813-731-2204 - JCAMT@TAMPABAY.RR.COM
FOR CD CTC TAMPA APCH AT 813-878-2528.

Instrument Procedures

There are no published instrument procedures at 9FD2.

Some nearby airports with instrument procedures:

KZPH - Zephyrhills Municipal Airport (5 nm N)
KPCM - Plant City Airport (8 nm S)
KLAL - Lakeland Linder International Airport (11 nm SE)
KVDF - Tampa Executive Airport (13 nm SW)
KTPF - Peter O Knight Airport (21 nm SW)
 
Loc | Ops | Rwys | IFR | FBO | Links
Com | Nav | Svcs | Stats | Notes


 
Area around 9FD2 (Blackwater Creek Ultralight Flightpark)
 
Road maps at: MapQuest Bing Google
 
Aerial photo
WARNING: Photo may not be current or correct
Aerial photo of 9FD2 (Blackwater Creek Ultralight Flightpark)
Do you have a better or more recent aerial photo of Blackwater Creek Ultralight Flightpark that you would like to share? If so, please send us your photo.

 
Sectional chart

 
Airport distance calculator
Flying to Blackwater Creek Ultralight Flightpark? Find the distance to fly.

From to 9FD2

Sunrise and sunset
Times for 04-Feb-2023
 Local
(UTC-5)
 Zulu
(UTC)
Morning civil twilight06:5111:51
Sunrise07:1512:15
Sunset18:1023:10
Evening civil twilight18:3423:34

Current date and time
Zulu (UTC)  04-Feb-2023 23:42:12
Local (UTC-5)  04-Feb-2023 18:42:12
 
METAR
KZPH 
5nm N 
042315Z AUTO 06006KT 10SM CLR 19/10 A3031 RMK A02 T01920097
KPCM 
8nm S 
042315Z AUTO 09008KT 10SM CLR 10/05 A3031 RMK AO2
KLAL 
12nm SE 
042250Z 09015KT 10SM SKC 21/09 A3030
KVDF 
13nm SW 
042315Z AUTO 08009KT 10SM CLR 21/11 A3030 RMK AO2
TAF
KLAL 
12nm SE 
041720Z 0418/0518 07010G20KT P6SM SKC FM050200 06009KT P6SM FEW250 FM051600 06009KT P6SM BKN035
NOTAMs
Click for the latest NOTAMs
NOTAMs are issued by the DoD/FAA and will open in a separate window not controlled by AirNav.

 

 
 

Would you like to see your business listed on this page?

 If your business provides an interesting product or service to pilots, flight crews, aircraft, or users of the Blackwater Creek Ultralight Flightpark, you should consider listing it here.  To start the listing process, click on the button below
 
Add a business
 

Other Pages about Blackwater Creek Ultralight Flightpark

Update a link
 
Copyright © AirNav, LLC. All rights reserved. Privacy Policy  Contact